KINEIS-5E

Last updated on Wed Aug 19 2026 00:02:55 GMT+0000 (Coordinated Universal Time)

1 62083U 24219C 26230.56089000 .00000449 00000+0 78701-4 0 9991 2 62083 97.9068 27.7815 0007704 71.8266 288.3780 14.72332570 92942
UTC large
Height (km)
Speed (km/s)
/
Latitude / Longitude
Inclination (degrees)
Orbital Period (minutes)
Azimuth
Elevation
Range (km)
Doppler Factor

Next 0 passes for location: London (51.5072 / 0.1276)

No passes found over London.
KINEIS-5E